Tracking 23726 objects as of 22-Sep-2021
HD Live streaming from Space Station
objects crossing your sky now

STARLINK-1867

Track STARLINK-1867 now!
10-day predictions
STARLINK-1867 is classified as:


NORAD ID: 47153
Int'l Code: 2020-088AH
Perigee: 553.1 km
Apogee: 555.6 km
Inclination: 53.1 °
Period: 95.6 minutes
Semi major axis: 6925 km
RCS: Unknown
Launch date: November 25, 2020
Source: United States (US)
Launch site: AIR FORCE EASTERN TEST RANGE (AFETR)
aabbcc
Your satellite tracking list
Your tracking list is empty




NASA's NSSDC Master Catalog

Two Line Element Set (TLE):
1 47153U 20088AH  21265.43406676  .00000851  00000-0  76033-4 0  9997
2 47153  53.0568  60.6393 0001810  92.9623 267.1573 15.06392860 46200
Source of the keplerian elements: AFSPC